Precipitable_Water
0.43 0.33 0.31 0.29 0.31 0.36 0.46 0.53 0.62 0.70 0.82 0.85 0.87 0.83 0.82 0.85 0.95 1.12 1.18 1.35 1.40 1.23 1.20 1.20 1.14 1.09 1.09 1.15 1.28 1.36 1.37 1.20 1.03 0.98 0.94 0.89 0.82 0.88 0.93 0.93 0.95 0.97 1.00 1.11 1.20 1.27 1.36 1.44 1.51 1.54 1.57 1.57 1.57 1.60 1.58 1.55 1.54 1.55 1.54 1.52 1.49 1.54 1.57 1.51 1.45 1.46 1.47 1.41 1.37 1.38 1.35 1.34 1.41 1.45 1.52 1.57 1.64 1.68 1.70 1.72 1.74 1.75 1.75 1.72 1.68 1.66
0.41 0.31 0.30 0.32 0.35 0.37 0.41 0.51 0.62 0.66 0.76 0.77 0.83 0.80 0.81 0.88 0.86 1.11 1.16 1.36 1.44 1.21 1.18 1.28 1.18 1.09 1.11 1.20 1.32 1.37 1.34 1.13 0.97 0.95 0.91 0.87 0.85 0.89 0.92 0.93 0.94 0.98 1.06 1.13 1.17 1.25 1.34 1.45 1.50 1.53 1.53 1.54 1.46 1.54 1.55 1.51 1.50 1.52 1.55 1.52 1.53 1.57 1.56 1.51 1.46 1.46 1.47 1.45 1.39 1.33 1.30 1.33 1.34 1.36 1.38 1.42 1.52 1.58 1.65 1.70 1.70 1.72 1.73 1.71 1.68 1.66
0.29 0.25 0.28 0.34 0.39 0.39 0.40 0.48 0.57 0.60 0.66 0.81 0.80 0.80 0.80 0.86 1.02 1.18 1.20 1.31 1.35 1.26 1.18 1.21 1.17 1.13 1.16 1.21 1.31 1.33 1.32 1.25 1.04 0.99 0.93 0.89 0.88 0.90 0.93 0.94 0.95 0.96 0.99 1.07 1.13 1.22 1.31 1.41 1.47 1.50 1.51 1.50 1.49 1.52 1.52 1.53 1.50 1.50 1.51 1.53 1.55 1.56 1.55 1.52 1.48 1.47 1.43 1.45 1.45 1.40 1.36 1.34 1.32 1.42 1.44 1.44 1.48 1.54 1.54 1.59 1.64 1.69 1.71 1.70 1.68 1.68
0.21 0.24 0.29 0.34 0.38 0.38 0.40 0.46 0.52 0.59 0.67 0.72 0.78 0.75 0.68 0.88 0.84 0.82 1.09 1.20 1.30 1.24 1.17 1.22 1.14 1.17 1.26 1.31 1.30 1.38 1.38 1.30 1.15 1.06 1.02 0.96 0.91 0.90 0.92 0.93 0.94 0.94 0.96 1.00 1.07 1.15 1.27 1.36 1.42 1.48 1.48 1.49 1.50 1.50 1.51 1.52 1.48 1.47 1.49 1.51 1.52 1.53 1.55 1.53 1.51 1.47 1.47 1.45 1.47 1.49 1.45 1.41 1.35 1.30 1.41 1.45 1.51 1.53 1.51 1.47 1.56 1.62 1.67 1.67 1.66 1.68
0.22 0.26 0.31 0.33 0.33 0.36 0.38 0.44 0.51 0.56 0.57 0.70 0.74 0.74 0.74 0.79 0.87 0.89 0.98 1.15 1.24 1.31 1.35 1.26 1.14 1.13 1.21 1.15 1.20 1.34 1.44 1.36 1.18 1.07 1.05 1.03 1.00 1.00 1.01 0.98 0.98 0.94 0.96 1.00 1.06 1.13 1.22 1.28 1.36 1.42 1.46 1.50 1.46 1.46 1.45 1.49 1.49 1.46 1.45 1.49 1.49 1.50 1.52 1.52 1.53 1.50 1.48 1.45 1.44 1.48 1.48 1.49 1.41 1.38 1.34 1.34 1.36 1.45 1.46 1.46 1.44 1.47 1.58 1.62 1.63 1.66
0.25 0.28 0.34 0.31 0.30 0.31 0.36 0.41 0.51 0.53 0.52 0.62 0.79 0.78 0.75 0.83 0.86 0.96 1.06 1.03 0.98 0.98 1.22 1.17 0.89 0.91 1.12 1.15 1.16 1.28 1.34 1.28 1.23 1.05 0.99 0.99 1.01 1.02 1.00 0.98 0.99 0.99 1.01 1.02 1.04 1.09 1.17 1.25 1.34 1.43 1.47 1.45 1.46 1.44 1.46 1.49 1.50 1.48 1.47 1.49 1.48 1.49 1.50 1.50 1.51 1.52 1.48 1.45 1.43 1.40 1.33 1.26 1.23 1.15 1.15 1.13 1.17 1.27 1.32 1.32 1.39 1.40 1.45 1.51 1.57 1.62
0.27 0.31 0.31 0.29 0.28 0.27 0.34 0.42 0.47 0.51 0.51 0.56 0.69 0.89 0.88 0.87 0.89 0.93 0.95 0.95 0.79 0.73 1.01 1.22 0.86 0.80 1.10 1.08 1.16 1.24 1.27 1.24 1.22 1.09 1.01 1.00 1.01 1.01 1.01 1.02 1.00 0.96 0.99 1.06 1.09 1.12 1.16 1.23 1.29 1.37 1.41 1.44 1.44 1.47 1.49 1.48 1.49 1.49 1.49 1.48 1.46 1.45 1.46 1.50 1.51 1.52 1.49 1.48 1.50 1.45 1.39 1.34 1.26 1.17 1.20 1.29 1.34 1.34 1.36 1.41 1.36 1.36 1.45 1.48 1.48 1.54
0.28 0.28 0.28 0.28 0.26 0.25 0.30 0.37 0.43 0.44 0.49 0.54 0.82 0.88 0.89 0.85 0.82 0.86 0.90 0.90 0.88 1.06 1.13 1.16 1.06 0.86 0.87 1.03 1.18 1.26 1.24 1.21 1.16 1.11 1.05 1.01 1.02 1.01 1.02 1.04 1.03 1.01 1.00 1.03 1.06 1.11 1.16 1.20 1.25 1.29 1.38 1.43 1.47 1.52 1.51 1.46 1.48 1.46 1.47 1.47 1.46 1.46 1.46 1.49 1.52 1.50 1.50 1.47 1.49 1.47 1.45 1.41 1.34 1.27 1.24 1.30 1.35 1.43 1.45 1.42 1.41 1.41 1.45 1.48 1.51 1.51
0.25 0.24 0.24 0.24 0.24 0.23 0.25 0.33 0.42 0.44 0.45 0.55 0.78 0.84 0.85 0.86 0.87 0.89 0.89 0.87 0.93 0.89 0.80 0.98 1.11 0.86 0.86 1.02 1.22 1.25 1.14 1.16 1.14 1.12 1.08 1.03 1.02 1.03 1.04 1.05 1.06 1.05 1.05 1.06 1.06 1.09 1.14 1.17 1.23 1.31 1.36 1.44 1.51 1.54 1.51 1.47 1.47 1.49 1.50 1.50 1.51 1.47 1.46 1.47 1.51 1.49 1.51 1.52 1.51 1.50 1.48 1.42 1.42 1.40 1.37 1.41 1.43 1.39 1.42 1.38 1.43 1.43 1.45 1.48 1.52 1.55
0.30 0.29 0.29 0.28 0.25 0.22 0.28 0.35 0.40 0.44 0.48 0.75 0.85 0.96 0.99 0.99 0.96 0.95 0.88 0.86 0.89 0.79 0.68 0.85 0.99 0.77 0.81 1.02 1.07 1.20 1.15 1.11 1.13 1.17 1.16 1.09 1.04 1.04 1.04 1.05 1.08 1.10 1.10 1.12 1.12 1.13 1.16 1.20 1.24 1.33 1.41 1.44 1.48 1.54 1.57 1.56 1.52 1.49 1.50 1.49 1.48 1.46 1.47 1.48 1.47 1.49 1.50 1.54 1.56 1.52 1.51 1.45 1.43 1.43 1.41 1.40 1.37 1.36 1.38 1.32 1.35 1.39 1.40 1.42 1.46 1.53
0.32 0.34 0.34 0.31 0.27 0.30 0.36 0.40 0.42 0.46 0.62 0.88 0.88 0.84 0.88 0.89 0.87 0.89 0.89 0.91 0.81 0.64 0.70 0.91 0.97 0.87 0.71 0.92 1.00 1.01 1.04 1.16 1.20 1.22 1.25 1.21 1.14 1.09 1.08 1.07 1.08 1.10 1.12 1.15 1.18 1.19 1.20 1.25 1.28 1.35 1.36 1.40 1.47 1.54 1.57 1.57 1.55 1.51 1.48 1.47 1.44 1.45 1.47 1.50 1.49 1.51 1.47 1.52 1.56 1.53 1.52 1.48 1.45 1.45 1.42 1.34 1.33 1.36 1.35 1.29 1.30 1.34 1.35 1.40 1.42 1.49
0.31 0.30 0.29 0.33 0.37 0.45 0.51 0.48 0.56 0.59 0.70 0.73 0.76 0.75 0.77 0.76 0.81 0.74 0.79 0.90 0.68 0.59 0.78 0.93 0.96 0.97 0.68 0.82 1.02 1.15 1.25 1.28 1.25 1.19 1.24 1.22 1.19 1.12 1.09 1.09 1.10 1.12 1.15 1.19 1.21 1.22 1.24 1.26 1.30 1.33 1.34 1.37 1.42 1.49 1.53 1.55 1.57 1.53 1.49 1.47 1.42 1.43 1.43 1.46 1.51 1.54 1.53 1.52 1.53 1.54 1.54 1.51 1.50 1.50 1.43 1.36 1.32 1.34 1.31 1.29 1.30 1.35 1.36 1.38 1.44 1.48
0.26 0.26 0.29 0.31 0.40 0.44 0.55 0.51 0.66 0.77 0.80 0.77 0.76 0.75 0.57 0.56 0.56 0.46 0.63 0.53 0.57 0.59 0.81 0.92 0.97 0.87 0.80 0.91 1.06 1.14 1.19 1.27 1.32 1.31 1.28 1.26 1.24 1.18 1.12 1.11 1.11 1.14 1.17 1.20 1.21 1.24 1.24 1.23 1.25 1.27 1.32 1.36 1.37 1.39 1.46 1.52 1.54 1.56 1.53 1.48 1.41 1.40 1.43 1.43 1.49 1.51 1.53 1.51 1.50 1.51 1.51 1.50 1.51 1.51 1.48 1.42 1.37 1.38 1.34 1.34 1.34 1.36 1.32 1.38 1.39 1.42
0.25 0.29 0.30 0.38 0.47 0.55 0.48 0.41 0.58 0.60 0.74 0.73 0.67 0.65 0.53 0.46 0.42 0.37 0.48 0.60 0.64 0.76 0.95 0.90 1.01 0.81 0.97 1.04 1.15 1.16 1.19 1.25 1.32 1.37 1.39 1.33 1.29 1.25 1.17 1.14 1.13 1.14 1.16 1.19 1.23 1.25 1.25 1.25 1.26 1.28 1.30 1.33 1.36 1.39 1.42 1.50 1.53 1.54 1.55 1.53 1.44 1.41 1.46 1.46 1.48 1.49 1.49 1.49 1.49 1.51 1.49 1.48 1.50 1.49 1.49 1.47 1.42 1.42 1.40 1.40 1.37 1.39 1.39 1.38 1.39 1.41
0.22 0.21 0.28 0.36 0.38 0.63 0.48 0.42 0.45 0.52 0.65 0.66 0.74 0.65 0.55 0.47 0.41 0.33 0.43 0.41 0.49 0.61 0.79 0.99 0.79 0.71 0.75 0.90 1.20 1.21 1.27 1.28 1.34 1.42 1.45 1.42 1.39 1.37 1.29 1.21 1.16 1.14 1.17 1.20 1.22 1.25 1.27 1.29 1.30 1.29 1.31 1.32 1.35 1.38 1.41 1.45 1.51 1.54 1.53 1.55 1.49 1.43 1.45 1.46 1.49 1.51 1.49 1.50 1.51 1.51 1.51 1.48 1.48 1.47 1.48 1.50 1.52 1.50 1.45 1.45 1.43 1.43 1.46 1.43 1.45 1.47
0.28 0.29 0.34 0.45 0.54 0.60 0.53 0.53 0.54 0.56 0.65 0.77 0.81 0.80 0.64 0.51 0.60 0.45 0.54 0.55 0.60 0.63 0.66 0.77 0.72 0.87 0.87 1.22 1.32 1.36 1.34 1.33 1.33 1.35 1.42 1.42 1.40 1.40 1.33 1.22 1.16 1.15 1.16 1.20 1.21 1.25 1.29 1.32 1.34 1.35 1.34 1.33 1.35 1.40 1.43 1.43 1.47 1.50 1.51 1.53 1.55 1.51 1.48 1.46 1.49 1.50 1.50 1.52 1.54 1.55 1.51 1.50 1.50 1.51 1.52 1.52 1.56 1.57 1.55 1.53 1.49 1.47 1.50 1.49 1.50 1.52
0.30 0.30 0.38 0.42 0.62 0.64 0.63 0.71 0.66 0.65 0.44 0.71 0.76 0.59 0.63 0.76 0.64 0.59 0.63 0.70 0.72 0.66 0.58 0.82 0.76 0.85 1.09 1.11 1.24 1.29 1.29 1.30 1.32 1.31 1.34 1.39 1.40 1.39 1.35 1.28 1.20 1.18 1.19 1.20 1.21 1.23 1.28 1.33 1.36 1.37 1.36 1.35 1.36 1.40 1.43 1.43 1.44 1.45 1.49 1.49 1.50 1.55 1.56 1.51 1.49 1.49 1.50 1.52 1.52 1.54 1.56 1.55 1.54 1.53 1.50 1.50 1.53 1.56 1.59 1.58 1.57 1.55 1.57 1.57 1.56 1.54
0.31 0.33 0.38 0.37 0.47 0.71 0.84 0.79 0.71 0.68 0.71 0.72 0.58 0.65 0.79 0.84 0.76 0.59 0.45 0.55 0.54 0.50 0.59 0.72 0.65 0.71 0.73 0.66 1.11 1.16 1.17 1.23 1.28 1.29 1.31 1.36 1.39 1.36 1.36 1.32 1.27 1.22 1.23 1.26 1.26 1.28 1.29 1.32 1.35 1.39 1.40 1.37 1.37 1.40 1.44 1.45 1.47 1.47 1.48 1.48 1.45 1.48 1.52 1.56 1.56 1.52 1.49 1.46 1.47 1.50 1.53 1.56 1.57 1.56 1.55 1.56 1.56 1.59 1.59 1.59 1.59 1.60 1.58 1.56 1.59 1.60
0.39 0.30 0.36 0.39 0.45 0.68 0.86 0.78 0.78 0.77 0.79 0.61 0.60 0.86 0.59 0.50 0.44 0.59 0.54 0.40 0.42 0.45 0.52 0.61 0.68 0.70 0.75 0.76 0.99 0.99 1.04 1.11 1.19 1.28 1.30 1.27 1.32 1.34 1.35 1.33 1.33 1.30 1.28 1.28 1.28 1.28 1.30 1.31 1.34 1.38 1.40 1.42 1.42 1.45 1.48 1.50 1.51 1.50 1.50 1.51 1.49 1.44 1.49 1.57 1.62 1.61 1.57 1.52 1.50 1.50 1.51 1.52 1.56 1.59 1.60 1.60 1.62 1.63 1.59 1.58 1.59 1.58 1.59 1.60 1.61 1.61
0.42 0.33 0.33 0.41 0.39 0.59 0.67 0.67 0.55 0.57 0.62 0.63 0.70 0.71 0.75 0.65 0.52 0.47 0.50 0.57 0.53 0.48 0.49 0.50 0.60 0.54 0.72 0.78 0.93 0.96 1.03 1.09 1.14 1.19 1.25 1.28 1.30 1.34 1.36 1.36 1.36 1.31 1.27 1.27 1.29 1.29 1.30 1.32 1.34 1.38 1.41 1.43 1.43 1.46 1.51 1.52 1.53 1.52 1.52 1.51 1.49 1.51 1.51 1.54 1.59 1.63 1.59 1.59 1.57 1.55 1.56 1.56 1.57 1.60 1.61 1.62 1.62 1.60 1.59 1.62 1.62 1.60 1.59 1.60 1.66 1.64
0.39 0.41 0.31 0.37 0.45 0.57 0.50 0.58 0.51 0.53 0.43 0.49 0.54 0.56 0.60 0.59 0.69 0.64 0.63 0.54 0.50 0.48 0.48 0.49 0.46 0.54 0.71 0.91 0.93 0.97 1.04 1.10 1.12 1.12 1.19 1.29 1.32 1.34 1.38 1.41 1.41 1.36 1.28 1.28 1.29 1.30 1.31 1.33 1.36 1.40 1.45 1.47 1.49 1.51 1.53 1.53 1.51 1.53 1.57 1.52 1.50 1.43 1.42 1.43 1.52 1.59 1.61 1.63 1.61 1.59 1.53 1.55 1.59 1.60 1.63 1.63 1.64 1.61 1.61 1.65 1.67 1.66 1.65 1.68 1.67 1.69
0.39 0.40 0.34 0.37 0.41 0.46 0.48 0.53 0.56 0.52 0.48 0.48 0.49 0.48 0.53 0.49 0.48 0.41 0.45 0.60 0.57 0.50 0.47 0.47 0.44 0.57 0.79 1.01 0.99 1.01 1.08 1.11 1.16 1.17 1.20 1.28 1.36 1.38 1.38 1.42 1.44 1.38 1.32 1.29 1.30 1.31 1.33 1.35 1.38 1.41 1.46 1.50 1.50 1.49 1.48 1.51 1.51 1.53 1.55 1.56 1.55 1.48 1.40 1.35 1.39 1.49 1.57 1.61 1.63 1.60 1.58 1.58 1.63 1.64 1.65 1.60 1.60 1.61 1.64 1.66 1.68 1.70 1.70 1.65 1.68 1.74
0.45 0.46 0.41 0.34 0.35 0.38 0.43 0.47 0.49 0.56 0.50 0.49 0.49 0.46 0.53 0.51 0.53 0.48 0.40 0.47 0.55 0.56 0.62 0.58 0.49 0.55 0.93 1.06 1.06 1.07 1.12 1.15 1.20 1.27 1.28 1.32 1.36 1.39 1.39 1.41 1.45 1.42 1.34 1.31 1.32 1.34 1.36 1.38 1.40 1.40 1.42 1.45 1.46 1.47 1.48 1.49 1.49 1.52 1.56 1.58 1.58 1.51 1.43 1.38 1.35 1.41 1.49 1.53 1.54 1.56 1.60 1.62 1.62 1.63 1.59 1.56 1.56 1.58 1.62 1.66 1.70 1.73 1.68 1.67 1.68 1.75
0.50 0.44 0.39 0.37 0.38 0.42 0.46 0.49 0.49 0.51 0.52 0.46 0.43 0.44 0.47 0.48 0.53 0.53 0.49 0.54 0.49 0.54 0.50 0.53 0.46 0.60 0.95 1.10 1.11 1.13 1.18 1.20 1.26 1.36 1.39 1.39 1.39 1.39 1.37 1.39 1.40 1.40 1.39 1.37 1.36 1.40 1.44 1.44 1.44 1.41 1.40 1.43 1.46 1.46 1.46 1.47 1.49 1.52 1.57 1.59 1.59 1.54 1.51 1.44 1.38 1.38 1.40 1.43 1.47 1.53 1.57 1.58 1.61 1.60 1.58 1.52 1.53 1.56 1.61 1.65 1.70 1.74 1.69 1.70 1.72 1.71
0.40 0.46 0.42 0.34 0.33 0.36 0.38 0.41 0.39 0.46 0.53 0.47 0.43 0.44 0.42 0.43 0.49 0.52 0.50 0.58 0.45 0.49 0.50 0.47 0.42 0.55 0.91 1.12 1.14 1.16 1.20 1.18 1.20 1.40 1.50 1.42 1.41 1.38 1.38 1.39 1.41 1.43 1.42 1.39 1.36 1.36 1.41 1.43 1.40 1.36 1.37 1.40 1.44 1.47 1.48 1.48 1.47 1.48 1.52 1.58 1.58 1.58 1.59 1.52 1.44 1.36 1.34 1.35 1.37 1.43 1.49 1.54 1.58 1.57 1.56 1.53 1.55 1.56 1.62 1.66 1.71 1.75 1.71 1.69 1.68 1.69
0.44 0.46 0.41 0.33 0.30 0.29 0.28 0.29 0.29 0.34 0.43 0.50 0.52 0.51 0.46 0.37 0.38 0.38 0.34 0.44 0.37 0.47 0.52 0.47 0.48 0.72 0.96 1.08 1.13 1.17 1.20 1.20 1.23 1.32 1.48 1.48 1.40 1.37 1.38 1.43 1.47 1.49 1.47 1.46 1.42 1.39 1.37 1.39 1.39 1.37 1.35 1.39 1.44 1.46 1.47 1.47 1.47 1.47 1.50 1.54 1.59 1.59 1.61 1.57 1.51 1.40 1.32 1.30 1.30 1.32 1.36 1.43 1.51 1.53 1.55 1.53 1.54 1.57 1.63 1.68 1.71 1.73 1.73 1.71 1.67 1.67
0.47 0.51 0.49 0.46 0.42 0.37 0.38 0.40 0.43 0.46 0.52 0.49 0.53 0.58 0.49 0.42 0.34 0.33 0.33 0.32 0.30 0.41 0.45 0.54 0.60 0.71 0.81 0.96 1.04 1.14 1.20 1.21 1.21 1.24 1.28 1.34 1.39 1.42 1.42 1.44 1.50 1.54 1.55 1.52 1.50 1.47 1.45 1.43 1.40 1.36 1.36 1.38 1.44 1.48 1.48 1.47 1.46 1.46 1.48 1.51 1.58 1.62 1.62 1.61 1.55 1.46 1.34 1.29 1.26 1.26 1.28 1.33 1.38 1.45 1.50 1.53 1.55 1.58 1.61 1.66 1.71 1.72 1.70 1.74 1.71 1.67
0.50 0.48 0.50 0.50 0.51 0.53 0.54 0.53 0.60 0.62 0.57 0.62 0.57 0.54 0.55 0.45 0.34 0.28 0.25 0.24 0.34 0.38 0.36 0.59 0.73 0.66 0.79 0.94 1.03 1.10 1.20 1.25 1.31 1.34 1.32 1.35 1.37 1.38 1.40 1.45 1.52 1.58 1.61 1.61 1.58 1.53 1.45 1.45 1.46 1.40 1.34 1.36 1.44 1.50 1.50 1.51 1.49 1.47 1.46 1.48 1.55 1.61 1.64 1.65 1.60 1.51 1.40 1.31 1.26 1.24 1.26 1.31 1.36 1.40 1.44 1.49 1.54 1.56 1.58 1.61 1.67 1.69 1.72 1.75 1.73 1.72
0.49 0.45 0.47 0.50 0.47 0.62 0.66 0.68 0.70 0.66 0.63 0.63 0.63 0.59 0.55 0.57 0.43 0.31 0.33 0.33 0.32 0.27 0.29 0.60 0.72 0.69 0.87 0.98 1.07 1.15 1.22 1.24 1.30 1.36 1.42 1.48 1.49 1.51 1.51 1.49 1.50 1.56 1.64 1.64 1.63 1.62 1.55 1.49 1.50 1.46 1.40 1.40 1.43 1.47 1.51 1.51 1.52 1.53 1.53 1.53 1.55 1.59 1.62 1.66 1.62 1.56 1.47 1.37 1.28 1.25 1.28 1.32 1.35 1.39 1.41 1.44 1.47 1.50 1.54 1.59 1.63 1.67 1.69 1.72 1.74 1.75
0.50 0.47 0.48 0.48 0.47 0.60 0.66 0.72 0.71 0.66 0.65 0.61 0.60 0.63 0.64 0.60 0.56 0.51 0.46 0.46 0.40 0.39 0.52 0.65 0.75 0.76 0.93 1.01 1.11 1.19 1.30 1.32 1.35 1.42 1.44 1.40 1.39 1.43 1.45 1.47 1.50 1.57 1.62 1.69 1.68 1.68 1.67 1.59 1.57 1.55 1.51 1.47 1.46 1.47 1.47 1.53 1.56 1.55 1.54 1.55 1.59 1.61 1.65 1.67 1.62 1.57 1.52 1.43 1.34 1.32 1.34 1.34 1.35 1.36 1.39 1.42 1.42 1.43 1.47 1.52 1.58 1.61 1.63 1.69 1.73 1.75
0.47 0.45 0.51 0.46 0.45 0.53 0.61 0.70 0.70 0.63 0.58 0.60 0.66 0.70 0.71 0.70 0.63 0.60 0.56 0.57 0.59 0.60 0.68 0.71 0.73 0.75 1.03 1.18 1.17 1.27 1.34 1.35 1.34 1.32 1.35 1.40 1.42 1.40 1.40 1.42 1.47 1.54 1.62 1.69 1.73 1.72 1.73 1.67 1.66 1.68 1.65 1.61 1.59 1.57 1.56 1.54 1.59 1.65 1.62 1.62 1.65 1.68 1.73 1.70 1.62 1.60 1.54 1.45 1.42 1.41 1.41 1.41 1.38 1.38 1.38 1.42 1.43 1.44 1.43 1.43 1.48 1.53 1.57 1.62 1.67 1.70
0.45 0.47 0.52 0.47 0.42 0.47 0.58 0.61 0.57 0.57 0.61 0.59 0.63 0.67 0.68 0.65 0.57 0.64 0.59 0.70 0.62 0.60 0.70 0.68 0.63 0.70 1.00 1.16 1.20 1.24 1.27 1.27 1.26 1.32 1.35 1.38 1.43 1.44 1.42 1.45 1.50 1.56 1.62 1.72 1.73 1.75 1.75 1.73 1.72 1.71 1.73 1.75 1.76 1.74 1.69 1.65 1.62 1.60 1.63 1.61 1.59 1.65 1.69 1.69 1.69 1.66 1.60 1.56 1.53 1.49 1.47 1.47 1.45 1.41 1.41 1.43 1.42 1.44 1.46 1.46 1.46 1.47 1.50 1.55 1.58 1.62
0.41 0.45 0.45 0.43 0.38 0.43 0.52 0.57 0.54 0.53 0.49 0.46 0.53 0.64 0.70 0.74 0.78 0.78 0.77 0.83 0.81 0.81 0.66 0.57 0.64 0.91 1.04 1.15 1.11 1.14 1.22 1.23 1.24 1.30 1.31 1.35 1.38 1.40 1.43 1.48 1.53 1.60 1.64 1.67 1.71 1.71 1.74 1.73 1.76 1.78 1.79 1.82 1.80 1.82 1.87 1.86 1.75 1.66 1.67 1.67 1.67 1.72 1.71 1.67 1.66 1.67 1.66 1.64 1.60 1.55 1.54 1.55 1.51 1.45 1.42 1.43 1.44 1.45 1.46 1.45 1.44 1.44 1.44 1.44 1.51 1.57
0.41 0.40 0.43 0.49 0.39 0.41 0.48 0.51 0.51 0.43 0.35 0.43 0.76 0.81 0.78 0.72 0.73 0.73 0.73 0.81 0.89 0.89 0.82 0.90 0.91 1.02 1.07 1.09 1.06 1.07 1.10 1.15 1.23 1.33 1.41 1.39 1.36 1.37 1.43 1.50 1.58 1.60 1.60 1.63 1.67 1.70 1.73 1.75 1.78 1.78 1.78 1.83 1.88 1.94 1.97 1.98 1.91 1.84 1.81 1.78 1.78 1.73 1.68 1.68 1.73 1.78 1.81 1.81 1.71 1.64 1.60 1.61 1.59 1.54 1.50 1.51 1.51 1.49 1.46 1.43 1.41 1.42 1.44 1.44 1.44 1.42
0.39 0.40 0.41 0.47 0.41 0.40 0.48 0.47 0.40 0.33 0.39 0.69 0.80 0.82 0.83 0.83 0.84 0.77 0.84 0.90 0.93 0.97 0.98 0.96 0.98 1.01 1.06 1.10 1.10 1.12 1.16 1.24 1.33 1.34 1.37 1.43 1.43 1.40 1.43 1.48 1.53 1.60 1.64 1.63 1.61 1.65 1.70 1.74 1.77 1.78 1.78 1.82 1.89 1.95 1.97 1.96 2.00 1.99 1.92 1.88 1.82 1.89 1.90 1.85 1.79 1.73 1.75 1.93 1.93 1.86 1.77 1.67 1.62 1.58 1.57 1.56 1.55 1.51 1.47 1.45 1.45 1.44 1.44 1.42 1.39 1.38
0.35 0.35 0.40 0.41 0.43 0.46 0.42 0.41 0.32 0.36 0.62 0.72 0.73 0.77 0.80 0.78 0.77 0.77 0.72 0.84 0.95 0.99 1.00 0.95 0.98 1.00 1.04 1.08 1.14 1.19 1.19 1.24 1.30 1.35 1.39 1.47 1.49 1.46 1.46 1.47 1.54 1.59 1.59 1.64 1.68 1.74 1.77 1.79 1.80 1.80 1.82 1.92 1.94 1.94 1.96 1.95 2.02 2.02 1.99 1.98 1.92 1.95 2.04 2.01 1.94 1.80 1.73 1.72 1.81 1.90 1.96 1.86 1.74 1.65 1.62 1.59 1.57 1.54 1.53 1.51 1.46 1.42 1.45 1.44 1.44 1.45
0.37 0.36 0.37 0.36 0.45 0.38 0.40 0.40 0.42 0.58 0.58 0.63 0.63 0.68 0.73 0.64 0.65 0.64 0.57 0.71 0.91 1.00 1.01 0.97 0.99 1.02 1.03 1.07 1.10 1.14 1.18 1.18 1.11 1.17 1.36 1.39 1.44 1.48 1.48 1.52 1.58 1.61 1.66 1.71 1.75 1.76 1.82 1.85 1.85 1.90 1.95 1.98 1.98 1.97 2.00 2.04 2.05 2.04 2.04 2.00 1.97 1.94 1.96 2.03 1.99 1.88 1.85 1.86 1.90 1.92 1.92 1.90 1.90 1.83 1.73 1.69 1.62 1.55 1.55 1.59 1.61 1.57 1.55 1.46 1.46 1.45
0.39 0.32 0.35 0.35 0.39 0.47 0.41 0.41 0.44 0.44 0.40 0.51 0.66 0.75 0.81 0.80 0.79 0.76 0.69 0.62 0.90 0.99 1.05 1.02 0.98 1.00 0.99 1.02 1.05 1.07 1.10 0.96 0.85 0.97 1.23 1.34 1.39 1.40 1.47 1.52 1.58 1.61 1.67 1.70 1.74 1.75 1.77 1.82 1.90 1.95 1.97 1.99 2.02 2.03 2.10 2.13 2.10 2.06 1.99 2.01 2.05 2.03 1.99 1.96 2.01 2.00 1.94 1.93 1.92 1.90 1.93 1.99 1.99 1.96 1.93 1.85 1.76 1.75 1.74 1.75 1.78 1.79 1.82 1.70 1.62 1.57
0.40 0.39 0.36 0.36 0.38 0.42 0.40 0.36 0.38 0.36 0.43 0.61 0.65 0.71 0.77 0.81 0.78 0.77 0.59 0.48 0.77 0.92 0.98 0.98 0.95 0.99 0.98 0.96 0.98 1.01 0.90 0.76 0.81 0.97 1.18 1.28 1.32 1.37 1.35 1.39 1.45 1.53 1.62 1.69 1.69 1.67 1.71 1.80 1.87 1.90 1.95 1.96 1.95 2.03 2.08 2.10 2.08 2.03 1.98 1.98 2.01 2.00 1.95 1.93 1.99 1.99 1.93 1.92 1.94 1.95 1.94 1.95 2.03 2.05 2.00 1.92 1.90 1.87 1.84 1.87 1.92 1.97 1.98 1.94 1.86 1.81
0.36 0.35 0.34 0.35 0.38 0.43 0.41 0.37 0.38 0.46 0.48 0.60 0.69 0.72 0.75 0.78 0.74 0.64 0.40 0.41 0.70 0.90 0.96 0.95 0.90 0.92 0.96 0.98 0.97 0.93 0.83 0.72 0.83 1.00 1.24 1.28 1.31 1.33 1.34 1.33 1.36 1.42 1.50 1.62 1.71 1.75 1.76 1.80 1.91 1.87 1.87 1.90 1.94 2.02 2.04 2.02 1.98 1.93 1.92 1.93 1.98 1.93 1.94 1.95 1.96 1.97 1.96 1.98 1.99 1.99 2.00 2.03 2.01 2.06 2.04 1.98 1.98 1.95 1.91 1.97 1.97 1.98 1.97 1.95 1.97 1.94
0.32 0.34 0.35 0.31 0.35 0.42 0.41 0.42 0.47 0.50 0.64 0.71 0.72 0.76 0.76 0.78 0.61 0.41 0.35 0.55 0.78 0.89 0.97 0.98 0.94 0.94 0.96 0.94 0.96 0.87 0.96 1.01 1.08 1.17 1.25 1.29 1.28 1.29 1.34 1.37 1.37 1.42 1.42 1.50 1.58 1.69 1.72 1.72 1.75 1.80 1.77 1.84 1.89 1.91 1.93 1.93 1.88 1.84 1.85 1.85 1.84 1.83 1.88 1.95 2.03 2.05 2.07 2.10 2.11 2.12 2.14 2.15 2.13 2.09 2.07 2.02 1.96 1.98 1.99 1.95 1.94 1.97 1.95 1.93 1.96 1.97
0.34 0.36 0.38 0.39 0.35 0.35 0.40 0.38 0.41 0.53 0.68 0.77 0.79 0.75 0.80 0.58 0.41 0.40 0.64 0.85 0.86 0.86 0.95 0.99 0.95 0.98 0.99 0.98 0.98 1.02 1.06 1.14 1.18 1.20 1.19 1.20 1.21 1.24 1.27 1.28 1.31 1.35 1.42 1.46 1.51 1.55 1.58 1.64 1.69 1.73 1.75 1.78 1.83 1.85 1.87 1.88 1.89 1.86 1.89 1.88 1.85 1.91 1.99 1.99 1.99 2.01 2.03 2.06 2.11 2.12 2.14 2.14 2.17 2.09 2.06 2.03 2.01 1.95 1.94 1.97 2.01 2.02 2.01 2.00 2.00 2.01
0.36 0.32 0.32 0.33 0.41 0.43 0.40 0.36 0.37 0.33 0.61 0.78 0.73 0.68 0.74 0.49 0.52 0.72 0.83 0.89 0.92 0.90 0.91 0.96 0.98 0.98 1.02 0.97 1.08 1.09 1.09 1.11 1.15 1.16 1.18 1.19 1.17 1.16 1.17 1.20 1.22 1.26 1.27 1.31 1.35 1.48 1.55 1.56 1.59 1.62 1.66 1.72 1.77 1.80 1.82 1.82 1.76 1.78 1.79 1.78 1.81 1.89 1.90 1.91 1.91 1.93 1.97 1.97 2.00 2.00 2.01 2.04 2.04 2.04 2.04 2.03 2.04 2.00 1.96 2.00 2.02 2.05 2.06 2.03 2.02 1.99
0.47 0.34 0.35 0.38 0.47 0.35 0.35 0.32 0.37 0.57 0.70 0.79 0.72 0.55 0.67 0.68 0.86 0.88 0.87 0.81 0.93 0.95 0.94 0.94 1.00 1.06 1.07 1.05 1.04 1.06 1.08 1.08 1.11 1.15 1.15 1.15 1.14 1.13 1.15 1.17 1.19 1.21 1.21 1.20 1.23 1.33 1.42 1.43 1.46 1.50 1.56 1.62 1.66 1.70 1.73 1.73 1.68 1.68 1.68 1.70 1.79 1.81 1.81 1.80 1.79 1.80 1.79 1.77 1.76 1.80 1.86 1.92 1.95 1.96 1.95 1.96 1.98 1.98 1.96 1.95 1.95 1.95 1.98 2.00 1.94 1.89
0.42 0.39 0.46 0.37 0.51 0.44 0.40 0.50 0.65 0.76 0.79 0.84 0.82 0.78 0.81 0.88 0.94 0.94 0.92 0.89 0.88 0.92 1.03 0.99 0.99 1.05 1.08 1.06 1.06 1.07 1.04 1.07 1.08 1.12 1.11 1.09 1.09 1.09 1.09 1.11 1.11 1.11 1.09 1.07 1.08 1.14 1.20 1.24 1.29 1.36 1.43 1.51 1.56 1.60 1.61 1.63 1.59 1.58 1.56 1.61 1.66 1.65 1.67 1.71 1.74 1.73 1.70 1.69 1.69 1.71 1.73 1.73 1.75 1.80 1.85 1.88 1.89 1.86 1.87 1.87 1.90 1.86 1.92 1.93 1.87 1.87
0.50 0.51 0.56 0.51 0.49 0.63 0.67 0.70 0.75 0.74 0.78 0.81 0.86 0.88 0.86 0.89 0.94 0.96 0.91 0.88 0.94 0.97 1.00 0.96 1.00 1.03 1.06 1.09 1.03 1.03 1.04 1.06 1.07 1.07 1.09 1.10 1.09 1.08 1.08 1.06 1.06 1.05 1.02 0.98 0.95 0.97 1.00 1.05 1.07 1.08 1.11 1.21 1.33 1.40 1.45 1.47 1.48 1.43 1.47 1.54 1.55 1.55 1.56 1.57 1.58 1.60 1.61 1.62 1.61 1.61 1.63 1.61 1.64 1.68 1.72 1.76 1.80 1.81 1.80 1.78 1.82 1.84 1.80 1.79 1.77 1.75
0.47 0.49 0.47 0.41 0.55 0.47 0.41 0.64 0.67 0.70 0.74 0.78 0.79 0.85 0.89 0.89 0.89 0.92 0.90 0.92 0.94 0.98 0.99 1.02 1.01 1.01 1.05 1.07 1.04 1.01 1.01 1.05 1.04 1.05 1.06 1.05 1.04 1.02 1.00 0.99 1.01 1.02 0.96 0.88 0.88 0.88 0.87 0.89 0.89 0.90 0.91 0.92 1.03 1.10 1.15 1.19 1.24 1.28 1.31 1.32 1.36 1.37 1.36 1.35 1.35 1.38 1.42 1.43 1.45 1.45 1.46 1.48 1.53 1.57 1.61 1.61 1.62 1.68 1.72 1.72 1.71 1.71 1.71 1.73 1.71 1.72
0.42 0.58 0.43 0.42 0.46 0.43 0.46 0.63 0.68 0.72 0.74 0.76 0.76 0.74 0.75 0.80 0.85 0.91 0.94 0.97 0.98 1.02 1.02 1.02 1.04 1.01 1.06 1.03 1.03 1.00 1.01 1.04 1.01 1.00 1.00 0.99 0.97 0.98 0.98 1.00 1.03 1.03 1.02 0.98 0.96 0.90 0.82 0.78 0.76 0.76 0.78 0.80 0.85 0.88 0.89 0.90 0.94 0.99 1.02 1.05 1.10 1.13 1.10 1.08 1.11 1.13 1.17 1.24 1.28 1.29 1.32 1.33 1.37 1.36 1.38 1.43 1.47 1.46 1.50 1.62 1.70 1.69 1.70 1.68 1.63 1.58
0.54 0.56 0.38 0.44 0.39 0.48 0.59 0.65 0.66 0.66 0.65 0.67 0.70 0.74 0.75 0.77 0.77 0.82 0.89 0.92 0.96 0.95 0.98 1.03 1.08 1.06 1.06 1.02 1.03 0.99 0.97 0.99 1.02 1.00 0.97 0.98 1.00 1.01 0.98 0.97 1.00 1.03 1.04 1.00 0.97 0.92 0.83 0.81 0.79 0.78 0.77 0.78 0.83 0.85 0.85 0.85 0.84 0.86 0.86 0.88 0.90 0.90 0.89 0.95 1.01 1.03 1.03 1.06 1.09 1.12 1.17 1.18 1.16 1.16 1.20 1.26 1.35 1.40 1.40 1.41 1.50 1.58 1.63 1.65 1.61 1.54
0.51 0.44 0.55 0.50 0.37 0.34 0.37 0.45 0.55 0.41 0.44 0.56 0.64 0.68 0.72 0.74 0.74 0.72 0.77 0.78 0.83 0.87 0.93 0.96 1.01 1.09 1.09 1.09 1.04 1.00 0.95 0.96 1.00 1.03 1.02 1.03 1.04 1.04 1.03 0.99 1.00 1.02 1.04 1.05 1.04 1.00 0.92 0.86 0.85 0.83 0.81 0.81 0.83 0.82 0.81 0.80 0.81 0.82 0.81 0.79 0.78 0.81 0.78 0.78 0.82 0.86 0.90 0.89 0.96 1.02 1.04 1.03 1.01 1.06 1.12 1.17 1.21 1.22 1.26 1.34 1.38 1.41 1.41 1.40 1.45 1.46
0.45 0.48 0.49 0.42 0.38 0.35 0.44 0.53 0.55 0.54 0.54 0.61 0.64 0.68 0.72 0.74 0.70 0.65 0.65 0.67 0.72 0.77 0.82 0.85 0.88 0.94 0.99 1.04 1.09 1.03 0.97 0.95 0.98 1.01 0.99 1.00 1.03 1.04 1.04 1.02 1.01 1.03 1.04 1.06 1.03 1.02 0.97 0.90 0.90 0.90 0.89 0.89 0.88 0.84 0.82 0.82 0.84 0.83 0.81 0.77 0.76 0.77 0.77 0.76 0.75 0.74 0.75 0.74 0.79 0.88 0.92 0.94 0.95 1.01 1.04 1.07 1.10 1.12 1.12 1.15 1.21 1.27 1.30 1.32 1.33 1.34
Wind_Speed
21 21 21 21 20 19 19 19 17 13 11 11 10 9 10 9 9 9 11 12 13 13 12 12 13 16 16 15 17 17 13 13 16 15 16 16 15 15 14 14 14 14 14 14 14 13 12 12 11 11 10 10 11 10 11 11 12 12 13 13 14 14 14 14 14 14 14 14 14 14 15 15 15 15 15 15 15 15 15 14 14 13 12 12 11 10
20 22 23 22 21 20 20 20 18 15 13 12 11 10 10 10 8 8 10 12 13 13 13 13 13 16 17 17 17 15 13 14 17 17 16 16 16 15 15 15 15 14 14 14 14 14 13 13 12 12 11 11 11 11 11 12 12 13 13 14 14 14 14 14 14 14 14 15 15 15 15 15 15 15 15 15 14 14 14 14 13 12 11 11 11 10
20 22 23 22 21 21 20 20 19 17 15 13 11 11 11 10 9 8 9 11 12 14 14 13 14 15 16 16 16 15 13 14 17 18 17 17 16 16 16 16 15 14 14 15 15 14 14 13 13 12 12 12 12 12 12 12 13 13 13 14 14 14 14 14 15 15 15 15 15 15 15 15 15 15 15 14 14 14 13 13 12 12 11 10 10 9
19 20 21 22 21 22 21 21 20 18 16 14 13 12 12 11 11 10 10 11 12 14 15 14 14 15 16 16 17 16 15 14 16 20 19 17 17 17 16 17 16 15 15 16 16 15 15 14 14 13 12 12 12 12 12 12 13 14 14 14 14 14 14 15 15 15 15 15 15 15 15 15 14 14 14 14 13 13 12 12 11 11 10 10 9 8
19 19 19 20 21 22 22 22 21 19 17 16 15 14 13 13 12 10 10 11 12 12 15 14 13 15 18 19 20 18 16 15 16 19 20 18 18 17 16 17 17 16 15 16 16 16 15 15 14 13 13 12 12 12 13 13 13 14 14 14 14 14 14 15 16 16 16 15 15 15 14 14 13 13 13 13 13 12 12 11 10 10 10 9 9 8
19 19 19 19 20 22 23 23 22 21 18 17 16 16 14 13 11 10 10 11 11 12 15 16 14 15 18 21 22 19 16 15 15 18 20 19 18 18 17 17 17 16 16 16 16 16 16 15 15 14 14 13 12 12 12 13 13 14 14 14 15 15 15 15 16 16 16 15 15 15 14 14 14 13 13 13 12 12 11 10 10 10 9 9 8 8
17 18 19 20 20 22 23 23 23 21 18 17 17 16 14 13 12 12 13 12 12 13 14 15 14 14 17 21 23 21 18 17 15 17 21 20 19 19 18 18 17 17 16 17 17 17 17 16 15 15 14 14 13 12 12 13 13 14 14 14 15 15 15 16 16 16 16 16 15 15 14 14 13 13 13 12 12 11 10 10 9 9 9 9 8 8
16 16 18 19 20 21 23 23 24 22 19 18 17 15 14 14 13 14 14 12 12 12 12 14 13 12 16 21 23 22 19 18 17 17 20 21 20 20 20 19 18 17 17 17 17 18 17 17 16 16 15 14 13 13 13 13 13 14 15 15 15 15 15 16 16 16 16 16 15 15 14 14 13 13 12 11 11 10 10 10 9 9 9 9 8 8
15 15 17 18 18 20 22 23 23 21 19 18 16 14 14 13 12 12 13 12 12 11 12 15 14 11 14 19 21 22 21 21 20 19 20 21 21 21 21 20 19 18 18 18 18 18 18 18 17 16 16 15 14 14 14 13 13 14 15 15 15 15 15 16 16 17 16 16 15 15 14 14 13 12 12 11 10 10 10 9 9 9 8 8 8 8
15 16 17 17 18 20 21 22 22 21 19 17 15 13 12 11 10 10 11 12 11 11 13 16 16 12 11 17 22 23 24 23 21 19 20 21 21 21 21 21 20 19 19 18 18 19 19 18 18 17 16 15 15 15 14 14 14 14 15 15 15 15 16 16 16 16 16 16 15 15 14 13 13 12 11 11 10 10 10 9 9 8 8 8 8 8
15 16 16 17 19 20 19 19 20 21 20 17 16 14 13 11 10 9 9 10 10 11 12 15 17 13 10 15 22 24 24 24 23 21 19 20 21 22 22 21 20 20 20 19 19 19 19 19 18 18 17 16 15 15 15 14 14 14 15 15 15 16 16 16 16 16 16 16 15 14 14 13 12 12 11 10 10 10 9 9 9 8 8 8 8 7
13 14 15 17 19 18 17 17 18 20 20 18 17 16 14 11 10 8 8 8 8 10 11 13 16 15 11 12 18 24 24 24 24 23 21 20 21 23 22 21 21 21 21 20 19 19 19 19 19 19 18 17 16 16 16 15 15 15 15 15 16 16 16 16 16 16 16 16 15 14 14 13 12 12 11 11 10 10 10 9 9 9 8 8 8 7
12 14 14 15 18 19 18 17 18 18 19 19 18 18 15 11 9 9 8 8 9 9 10 12 14 15 13 12 14 21 25 27 26 25 23 22 22 23 23 22 22 22 22 21 20 20 19 20 20 20 19 18 17 16 16 16 16 15 15 16 16 16 16 16 16 16 15 15 15 14 14 13 12 12 11 11 11 11 10 10 9 9 9 8 8 8
10 12 12 13 17 19 19 20 20 19 20 20 19 18 16 12 10 10 10 9 9 9 9 10 13 12 12 11 13 17 23 27 29 27 26 24 23 23 24 23 22 23 23 22 21 21 20 20 20 20 20 19 18 17 17 16 16 16 16 16 16 16 16 16 16 16 15 15 15 14 14 13 13 12 11 11 11 11 10 10 10 10 9 9 9 8
10 10 12 14 16 19 19 21 21 20 19 18 18 17 16 14 12 11 11 10 9 9 9 10 11 11 9 9 11 15 18 23 28 29 27 25 23 22 23 23 23 23 23 22 22 22 21 22 21 21 21 20 19 18 17 17 16 16 16 16 16 16 16 16 16 16 15 15 14 14 14 13 13 13 12 11 11 11 11 10 10 10 9 9 9 8
11 10 11 13 16 18 18 19 20 19 17 17 18 17 15 15 12 10 11 10 9 8 8 10 11 10 10 8 8 10 15 19 24 28 29 27 25 23 23 23 23 24 24 23 23 23 22 22 22 21 21 21 20 19 18 17 17 17 17 17 17 16 16 16 16 16 16 15 15 14 14 14 13 13 12 12 11 11 11 11 10 10 10 9 9 9
10 10 9 11 15 18 17 18 20 20 17 16 18 18 16 15 12 11 10 9 9 8 8 10 10 9 10 9 8 9 12 16 20 25 30 30 28 26 24 23 23 23 24 24 24 23 23 23 22 22 22 21 21 20 19 18 17 18 18 17 17 17 17 17 16 16 16 15 15 15 14 14 13 13 13 12 12 12 11 11 11 10 10 10 9 9
10 9 8 10 15 18 17 17 18 18 16 16 18 18 16 13 12 11 10 8 8 8 8 9 10 10 9 9 9 9 11 14 16 21 28 31 30 29 27 24 23 23 24 24 24 24 23 23 23 22 22 22 22 21 20 18 18 18 18 18 18 17 17 17 17 16 16 15 15 15 15 14 14 13 13 13 12 12 12 12 11 11 11 10 10 9
10 8 8 10 14 17 16 16 17 17 16 15 16 17 15 13 12 12 10 9 9 8 8 8 9 10 10 10 10 11 12 14 15 17 24 31 31 30 30 27 24 23 24 24 24 24 24 24 24 23 23 22 22 21 20 19 18 18 18 18 18 18 17 17 17 16 16 16 15 15 15 15 14 13 13 13 13 13 13 12 12 12 11 11 10 10
9 8 8 9 13 16 16 17 19 19 16 15 14 15 15 13 12 12 11 10 9 8 8 7 6 8 10 9 10 12 12 13 14 15 20 29 32 31 31 30 26 24 24 24 24 24 24 24 24 24 23 23 22 22 21 20 19 19 19 18 18 18 18 17 17 17 17 16 16 16 15 15 15 14 13 13 13 13 13 12 12 12 12 11 11 10
9 8 7 7 12 17 18 18 20 19 18 17 15 14 15 13 11 11 11 10 9 8 8 7 7 8 8 7 9 11 11 12 14 14 17 25 32 32 31 31 29 25 24 25 25 25 25 25 25 24 24 23 23 22 21 21 20 20 19 19 18 18 18 18 18 18 17 17 16 16 16 16 15 15 14 14 13 13 13 13 12 12 12 12 11 11
9 9 7 6 11 17 17 17 18 18 17 18 16 14 14 14 12 10 10 10 9 8 8 8 7 8 8 7 8 10 10 11 13 14 16 23 30 32 31 31 30 27 25 25 25 25 25 25 25 24 24 23 23 22 22 21 21 21 20 19 19 18 18 18 18 18 18 17 17 17 17 16 16 15 15 14 14 13 13 13 13 12 12 12 12 11
9 8 7 8 12 15 16 15 16 18 17 16 16 14 13 13 13 12 10 10 10 8 7 7 6 7 7 6 6 7 9 9 10 12 16 22 29 32 32 30 29 27 26 25 25 26 26 26 25 25 24 24 23 23 23 22 22 22 21 20 19 19 19 19 18 18 18 18 18 17 17 17 16 16 15 15 14 14 14 13 13 12 12 12 12 12
9 7 6 8 10 12 13 12 12 15 16 15 15 14 14 14 13 13 12 10 10 9 8 6 6 6 6 5 5 6 7 7 7 9 15 21 26 30 31 29 28 27 25 24 25 26 26 27 26 25 24 24 24 23 23 22 22 22 22 21 20 20 19 19 19 19 19 19 19 18 18 17 17 17 16 16 16 15 15 14 14 13 13 13 12 12
9 8 5 5 8 9 9 9 10 12 15 16 15 14 16 16 14 13 12 10 10 11 10 7 6 6 5 4 4 5 5 6 5 6 12 19 23 27 29 27 26 25 25 24 24 25 26 27 26 25 25 25 24 24 23 23 23 23 22 22 21 20 20 19 19 19 19 19 19 19 19 18 18 17 17 17 17 16 16 15 14 14 13 13 13 13
10 8 6 7 9 10 11 11 11 12 13 15 14 13 15 16 16 15 13 11 11 11 10 8 7 6 5 3 3 4 5 6 5 6 11 16 20 23 24 24 24 24 24 23 24 25 26 26 26 26 26 25 25 24 24 24 23 23 23 23 22 21 20 20 20 20 20 19 19 20 20 19 19 19 18 18 17 17 16 16 15 15 14 14 14 14
11 8 7 9 11 12 12 12 12 12 13 13 12 11 13 15 16 15 14 13 13 11 10 9 8 7 4 3 3 4 4 6 6 8 11 15 18 20 21 22 22 23 23 23 23 24 25 25 25 26 25 25 26 25 24 24 24 24 24 23 23 22 21 21 21 21 20 20 20 20 20 20 20 19 19 19 18 18 17 17 16 16 15 15 15 15
12 8 7 9 9 9 10 11 12 12 12 12 11 10 10 12 13 14 14 15 14 12 10 10 9 7 5 4 4 4 5 6 6 8 11 14 16 18 19 20 22 22 23 23 24 24 25 25 25 25 25 25 25 25 25 25 24 24 24 24 23 22 22 21 21 22 21 21 21 21 21 21 20 20 20 20 19 19 18 18 17 17 17 16 16 16
13 9 8 8 7 6 7 8 10 12 11 11 10 8 8 9 10 12 14 14 13 13 12 11 9 7 6 5 4 4 5 5 6 7 9 12 14 16 17 18 20 21 21 23 24 25 25 25 26 26 25 25 24 24 25 25 25 25 25 24 24 23 23 22 22 22 22 22 22 22 21 21 21 21 21 20 20 20 20 19 19 18 18 18 17 17
13 11 9 9 8 6 6 8 10 11 10 8 8 8 8 9 9 10 11 11 11 12 12 11 9 8 7 5 4 4 5 5 5 6 7 8 11 13 15 16 18 19 21 24 25 24 25 25 26 26 26 25 24 24 24 24 25 25 25 25 24 24 24 23 23 22 22 23 23 22 22 22 22 21 21 21 21 20 20 20 20 20 19 19 19 18
11 12 11 9 9 7 7 9 10 9 8 7 6 6 7 7 7 8 9 10 11 12 12 11 10 9 7 5 4 4 4 4 4 4 5 6 8 10 12 14 15 16 20 26 28 25 25 25 24 24 25 24 24 25 24 24 24 24 24 24 24 24 24 24 23 23 23 23 23 23 23 22 22 21 22 22 21 21 21 21 21 21 20 20 20 20
9 13 13 11 9 9 9 9 9 7 6 6 4 4 6 7 7 7 8 10 11 12 12 11 10 9 8 6 4 4 3 4 3 4 4 5 7 8 10 11 12 12 13 21 28 27 25 24 23 23 23 24 24 25 25 24 24 24 24 24 24 24 23 23 24 24 24 23 23 23 23 23 22 22 21 21 21 21 21 21 21 21 21 21 21 21
7 12 15 13 11 11 11 9 9 7 7 7 6 6 8 8 8 8 8 8 10 12 13 11 10 10 9 7 5 4 3 3 4 5 5 6 6 7 8 9 10 10 9 14 23 27 25 24 24 23 24 25 25 25 25 25 25 25 25 25 25 25 25 25 24 24 24 24 24 24 24 23 23 22 22 21 21 21 21 21 22 22 22 22 22 22
6 9 14 15 13 13 12 10 8 8 8 11 11 10 9 9 8 9 8 7 8 10 11 11 11 10 9 8 7 5 4 4 4 4 5 6 6 6 7 7 7 9 9 11 17 22 23 24 24 24 25 27 27 27 27 27 27 27 26 26 26 25 25 25 25 24 24 23 23 24 24 24 24 23 23 22 22 21 21 21 22 22 22 23 23 23
7 7 11 14 14 13 12 9 8 9 11 12 12 11 11 10 9 9 8 7 8 8 10 11 11 10 9 8 7 6 5 3 3 3 4 5 6 6 6 7 6 7 9 10 13 16 19 21 22 23 25 26 28 28 28 29 29 28 27 27 26 25 25 25 25 24 24 23 23 22 23 24 24 24 24 23 23 22 22 22 22 22 23 23 23 24
8 8 10 12 13 14 13 11 11 12 11 11 10 10 11 10 10 10 9 9 9 9 10 10 10 10 9 8 8 7 6 4 3 2 2 3 5 5 5 6 6 7 8 9 11 13 14 16 19 20 22 24 26 28 28 29 29 29 27 26 26 26 25 24 25 25 25 25 25 24 24 24 25 25 25 24 24 24 23 23 23 23 23 23 23 24
8 8 9 11 12 14 14 13 13 12 11 11 11 11 11 11 11 11 10 11 11 10 11 11 10 10 10 10 9 8 7 6 5 3 3 3 4 4 4 4 5 6 7 8 9 11 12 13 16 18 19 20 22 24 25 27 28 28 28 26 26 26 25 24 25 26 26 25 26 26 25 26 26 26 26 26 25 25 24 24 24 24 24 24 24 24
7 8 10 11 11 13 14 14 14 12 12 13 13 12 12 12 12 11 11 11 12 11 11 11 12 12 12 12 11 10 9 9 8 6 5 5 4 4 5 4 4 5 6 7 8 9 10 10 12 14 15 17 19 21 22 23 25 26 26 26 25 24 24 24 24 25 25 25 25 25 25 26 26 26 27 26 26 26 25 24 24 25 25 25 25 25
6 8 9 10 11 12 14 14 15 15 14 14 14 12 11 11 12 12 10 11 13 12 11 11 12 12 13 13 12 11 10 10 10 9 8 7 6 6 5 5 5 5 5 6 7 7 8 8 9 10 11 13 15 18 20 20 21 23 23 24 24 23 23 23 23 24 25 25 25 25 25 26 26 26 26 26 26 26 26 25 25 26 26 26 26 26
8 8 8 9 11 12 13 13 14 15 15 15 14 12 11 11 11 11 10 12 13 13 12 12 12 12 13 12 11 11 11 12 11 11 10 9 8 7 6 6 5 6 6 6 6 6 7 7 7 7 8 9 10 13 15 17 18 19 19 20 21 22 22 22 22 22 24 24 24 24 25 25 26 26 26 26 26 26 26 26 26 26 27 27 28 28
9 9 9 10 11 12 12 12 13 14 16 16 15 13 12 11 10 10 12 13 13 12 12 12 12 12 12 12 12 11 11 12 12 11 11 10 9 8 7 6 6 6 6 6 6 6 6 7 6 6 7 7 8 9 11 13 14 15 15 16 17 18 19 19 19 19 20 21 21 21 22 23 24 25 26 26 27 27 26 26 26 27 27 28 29 29
9 9 9 10 11 11 12 12 12 13 16 16 14 14 13 13 13 13 13 12 11 11 11 10 10 11 11 11 11 11 11 11 11 11 11 10 9 8 8 7 6 6 6 7 7 7 7 7 7 6 6 7 8 8 9 10 11 12 12 12 13 14 15 16 17 17 17 18 18 18 19 20 21 22 23 24 25 26 26 26 26 26 26 26 28 29
9 9 9 10 11 11 11 11 11 14 16 15 14 14 14 14 15 15 13 12 12 11 10 9 9 10 11 11 10 11 11 11 11 11 11 10 10 9 8 8 7 7 7 7 7 7 7 7 7 6 6 7 7 8 8 9 9 9 10 10 10 12 13 14 14 15 15 15 15 15 16 17 17 17 18 19 20 21 22 23 22 22 22 22 23 24
7 8 9 10 11 10 10 11 12 14 15 14 14 15 15 15 15 15 14 14 13 12 11 10 9 9 10 11 11 11 11 11 11 11 11 11 11 10 9 9 8 8 8 7 7 8 7 7 7 7 7 7 8 8 9 9 9 9 9 10 10 11 11 12 13 13 14 14 14 14 14 15 15 16 16 16 17 17 18 19 19 19 20 20 18 17
6 8 9 9 10 10 11 12 13 13 13 12 12 13 13 13 14 14 14 14 14 13 13 12 10 10 11 11 11 11 11 11 11 12 12 12 12 11 11 10 10 9 9 9 9 9 8 8 8 7 7 8 8 9 9 10 10 10 10 11 12 12 12 12 12 13 13 13 13 14 14 14 14 15 15 16 16 16 16 16 17 18 18 18 17 15
6 6 7 7 9 10 10 10 11 11 10 10 10 11 12 12 13 13 13 14 14 13 13 13 12 12 11 11 11 11 11 11 11 11 11 11 11 11 11 11 11 11 10 10 10 10 10 10 9 9 9 9 10 10 10 10 10 10 11 11 12 12 12 12 12 12 13 13 13 13 14 14 13 13 14 14 14 15 16 16 16 16 16 17 16 15
6 6 6 6 7 8 9 10 11 10 10 9 10 11 11 11 12 12 13 13 14 14 13 13 13 13 12 12 12 12 12 12 11 11 12 11 11 11 12 12 11 11 11 11 10 11 11 11 11 10 10 10 11 11 11 11 11 11 11 11 12 12 13 13 13 13 13 13 13 13 13 14 14 14 14 14 14 15 16 17 16 16 16 16 16 16
6 5 5 5 6 8 9 11 11 10 10 10 10 11 12 11 11 12 12 13 13 14 14 14 13 13 13 13 13 13 12 12 12 12 12 12 12 12 12 12 12 12 11 11 11 11 11 11 11 11 11 11 12 12 12 12 12 12 12 12 12 13 13 13 13 14 14 14 14 14 15 15 15 16 16 16 16 16 17 17 17 16 16 16 17 17
5 4 5 5 5 6 8 9 10 9 9 9 10 11 11 11 11 11 11 11 12 13 13 14 14 13 13 13 13 13 13 13 13 13 12 12 13 13 14 14 14 14 13 12 12 12 12 12 12 12 12 12 13 13 13 13 13 13 13 13 14 14 14 14 15 15 15 16 16 16 16 16 16 16 16 17 17 17 17 17 17 17 17 17 17 18
5 5 5 5 5 6 7 9 10 9 9 10 11 11 11 11 11 11 10 11 11 11 12 12 13 13 13 12 13 13 13 13 13 13 13 13 13 14 14 15 15 15 15 14 13 13 13 13 13 13 13 14 14 14 14 14 14 15 15 15 16 16 16 16 16 16 17 17 17 17 17 17 16 16 16 16 16 16 16 16 17 17 18 19 19 19
7 8 7 6 6 7 9 10 10 8 9 10 11 10 11 11 11 10 11 11 11 11 11 12 12 12 12 12 12 12 13 14 14 13 13 13 13 14 15 15 15 15 15 15 15 14 14 14 14 14 14 15 15 15 15 15 15 16 16 16 17 17 17 17 17 17 18 18 18 17 17 17 17 16 16 16 16 16 16 16 17 17 18 19 19 19
Wind_Direction
212 214 215 212 210 207 206 207 207 208 204 199 203 208 203 203 207 205 202 203 202 199 199 203 199 191 188 186 186 190 198 199 193 192 191 189 188 187 185 183 182 179 178 177 176 175 169 164 162 157 155 155 154 153 152 153 153 152 151 151 151 150 149 150 150 149 146 144 144 143 144 146 146 146 145 145 145 145 146 146 145 145 145 145 145 146
213 215 217 212 208 207 206 208 209 209 205 203 205 205 202 205 208 206 206 208 209 207 203 202 199 194 190 187 190 193 199 201 195 192 193 190 188 188 185 184 183 180 179 178 177 175 171 165 163 159 156 156 156 156 155 156 156 155 155 154 153 152 151 152 152 150 148 146 145 143 143 144 146 146 147 146 147 147 148 149 149 148 147 147 147 148
216 216 217 213 209 207 208 207 209 210 208 208 209 205 205 208 206 206 211 212 214 212 207 201 198 197 196 194 198 199 201 204 197 193 194 191 188 188 186 185 183 179 178 180 177 175 173 168 165 162 159 158 158 158 159 158 158 158 158 157 156 155 154 153 153 151 150 148 147 144 144 145 146 147 148 148 148 149 151 151 152 152 151 150 150 149
216 216 215 213 209 208 209 208 208 210 210 211 209 207 209 208 209 212 211 209 211 213 208 201 197 200 201 203 207 206 205 208 201 195 194 192 190 189 188 187 185 181 178 180 178 176 175 171 167 165 162 161 159 160 161 161 160 161 161 160 160 159 157 155 154 153 151 150 149 147 146 148 148 149 150 150 150 151 153 154 156 157 157 157 155 153
216 215 210 208 207 208 210 209 208 208 211 215 211 210 211 209 213 213 205 204 207 211 206 198 198 203 202 204 207 206 206 209 202 196 196 195 192 190 188 188 188 186 181 180 179 178 176 173 170 167 166 164 162 163 165 164 164 165 164 163 163 161 158 158 156 155 153 152 151 149 148 150 152 152 153 155 156 156 157 158 159 162 163 163 161 159
217 212 205 206 207 207 208 209 208 206 210 217 216 215 213 208 208 202 196 200 204 211 208 202 204 207 204 205 206 203 206 210 203 197 198 197 194 192 189 188 189 188 186 184 182 180 178 175 172 170 169 168 166 167 168 167 166 166 166 165 164 163 161 160 159 158 157 156 155 153 153 154 155 156 157 159 160 160 161 161 161 163 166 166 165 164
210 203 201 206 209 207 207 209 208 204 207 216 215 211 209 205 202 197 197 202 207 211 209 207 209 207 205 206 206 204 207 211 207 201 199 198 196 195 193 190 189 189 187 186 184 183 180 177 175 174 174 172 170 170 170 168 167 167 168 167 166 165 164 163 162 162 161 161 160 160 160 159 159 160 161 163 163 162 163 162 162 164 166 168 168 166
205 201 202 207 209 207 207 208 205 200 204 214 212 203 203 205 202 201 203 208 212 210 207 209 210 207 208 208 205 204 208 211 209 205 201 198 197 197 196 193 191 191 188 186 185 184 182 179 178 177 177 176 173 171 171 170 169 169 169 169 168 167 166 166 165 165 165 165 165 165 164 164 165 166 165 165 166 166 166 166 166 166 168 170 170 169
205 207 206 206 208 207 206 205 201 197 203 213 210 202 205 207 206 209 211 213 214 211 210 211 208 209 213 210 204 204 208 210 209 207 203 199 198 198 198 196 194 193 190 187 186 186 184 181 181 180 179 178 176 173 173 172 171 171 172 172 171 171 170 168 169 169 169 169 169 169 169 170 171 171 170 170 169 169 169 170 170 170 171 172 173 173
208 210 209 207 208 207 203 201 198 196 204 208 200 198 203 206 208 213 216 216 215 216 217 212 207 211 218 211 206 205 207 208 206 206 205 201 199 199 199 197 195 195 192 189 188 188 187 184 183 182 181 180 178 176 175 174 174 173 174 174 175 175 174 173 173 173 173 174 174 174 174 175 176 175 174 174 173 172 172 173 173 174 173 173 175 175
214 215 213 209 207 202 197 198 198 196 197 198 197 197 198 205 210 213 219 218 216 222 224 216 210 215 226 218 212 209 207 206 204 204 205 203 201 199 200 199 197 196 194 192 191 190 190 187 185 184 183 182 181 180 178 177 177 176 176 177 178 179 179 178 178 178 178 179 179 180 180 180 180 179 178 177 177 176 176 177 177 176 176 175 176 176
218 218 214 207 203 197 193 198 197 193 193 197 203 200 196 205 211 210 218 216 218 226 225 219 214 216 229 227 217 213 208 206 206 206 204 204 202 199 200 200 198 197 195 194 194 193 191 189 186 185 185 184 183 183 182 180 179 179 179 180 180 181 182 182 182 183 183 183 184 185 186 185 184 184 183 183 183 182 182 181 180 178 178 179 178 179
218 214 210 204 199 192 191 194 194 196 199 199 201 198 195 203 210 213 219 217 221 225 221 218 213 218 232 231 217 212 209 207 209 210 208 206 203 200 200 201 200 198 197 196 195 195 193 191 188 187 187 187 186 185 186 184 182 182 182 182 183 184 184 184 185 186 186 187 188 190 190 190 189 189 189 189 188 188 187 186 185 183 182 184 183 183
214 211 204 197 198 196 192 191 193 197 200 198 198 197 194 197 204 215 222 223 224 222 218 214 211 221 237 232 215 210 210 209 209 210 210 208 205 203 202 202 200 199 198 197 197 196 195 193 191 189 189 190 189 188 188 188 186 184 184 185 185 186 186 187 189 189 189 190 192 192 193 193 193 193 193 193 193 193 192 191 190 189 188 189 189 188
199 204 203 199 202 202 198 196 195 194 195 200 201 198 197 198 202 210 214 217 216 213 209 205 209 220 227 228 219 209 208 208 208 209 209 208 207 205 203 202 201 200 199 198 198 198 197 196 194 192 191 192 192 190 190 190 189 188 187 188 188 188 188 190 191 192 191 192 193 194 195 196 196 196 197 197 197 198 197 196 195 195 194 194 195 196
193 201 210 211 204 200 199 198 193 189 192 201 200 197 201 204 203 205 209 208 199 202 210 207 217 226 221 227 227 208 204 205 205 207 207 208 207 205 203 202 201 201 200 199 198 199 199 197 196 194 193 194 194 193 192 192 191 191 191 191 191 191 191 192 193 193 194 195 195 196 197 197 199 200 200 200 200 201 202 201 200 199 199 199 201 204
197 207 216 211 200 196 197 195 192 191 194 198 200 202 205 206 202 202 209 210 200 209 221 215 224 232 225 230 225 204 202 203 203 206 207 207 206 205 205 202 201 201 200 200 199 199 199 198 197 196 195 195 195 195 196 194 193 194 193 194 194 194 194 194 195 195 195 196 198 198 198 199 202 203 203 203 202 202 203 205 205 204 204 205 207 209
198 214 221 202 194 195 195 195 197 199 196 193 199 204 203 206 208 204 206 214 213 221 224 218 225 226 221 227 218 204 203 205 206 207 207 207 205 205 206 203 201 201 201 201 200 200 200 199 198 198 197 197 196 197 198 197 196 196 196 197 197 197 197 197 197 197 197 198 199 200 201 202 203 204 205 205 204 203 204 206 207 208 208 210 212 212
190 205 215 199 193 191 188 192 198 203 201 194 196 201 199 202 208 205 204 209 213 223 224 219 225 225 222 223 214 207 208 206 206 207 207 206 204 204 205 203 202 202 201 202 201 201 201 200 199 198 198 199 198 198 199 200 199 198 198 199 199 200 200 199 200 200 200 200 201 202 203 203 204 205 205 206 205 206 207 208 209 210 212 213 215 215
190 191 207 206 197 190 187 192 194 199 202 194 193 200 201 201 203 203 207 207 205 214 220 218 223 228 228 224 212 209 212 207 205 207 206 204 203 203 204 204 203 203 203 203 202 202 202 201 201 199 199 200 200 199 200 201 202 201 201 201 201 202 202 202 202 203 203 203 204 204 205 205 205 206 207 207 207 208 210 211 211 213 214 216 217 217
194 191 204 211 197 190 190 195 195 196 198 194 193 199 202 203 203 205 211 211 204 207 214 215 225 235 233 224 212 209 210 209 208 210 208 203 201 202 203 204 204 205 204 204 204 203 203 202 201 201 201 201 202 202 201 202 204 205 203 203 204 204 204 205 205 205 206 206 206 207 207 207 208 208 209 209 209 211 213 214 215 216 217 218 219 219
196 196 206 209 193 190 196 201 200 200 199 195 197 201 200 202 202 201 209 214 210 209 210 208 223 242 239 226 218 211 209 212 213 215 212 203 200 201 202 203 204 205 205 206 205 204 203 203 202 202 202 203 203 204 203 204 206 207 206 205 205 206 206 207 208 208 209 209 209 209 209 209 210 211 211 212 212 213 214 216 217 218 219 219 219 219
194 194 209 213 198 195 204 209 205 203 200 198 203 205 202 203 201 197 204 212 210 211 214 209 220 240 240 230 222 215 210 210 215 218 213 204 199 199 200 201 202 204 206 206 207 206 205 204 204 203 204 204 205 205 205 206 207 208 209 208 207 208 208 210 210 210 211 212 212 212 212 212 213 214 214 215 216 216 217 218 219 220 221 221 220 220
195 192 208 214 200 196 202 205 203 200 198 202 211 210 206 208 206 201 204 206 204 208 208 204 214 229 240 237 220 209 204 202 209 211 203 198 196 196 198 200 201 202 204 206 207 207 206 206 206 206 205 206 206 207 208 208 208 210 211 210 210 210 210 211 212 213 214 214 214 215 215 215 216 216 217 218 219 220 220 220 221 222 222 223 223 222
195 193 199 196 188 189 194 197 197 195 194 200 209 213 212 210 204 203 207 204 204 208 199 194 208 218 230 231 205 195 192 190 191 185 183 186 189 192 195 198 200 201 203 205 207 208 208 208 208 208 207 207 207 209 209 210 210 211 212 213 213 213 213 213 214 214 216 217 217 217 217 218 218 219 220 220 221 222 223 223 224 224 224 224 225 225
187 188 188 176 179 188 192 197 199 197 197 199 204 212 215 209 202 203 206 202 207 210 197 193 205 209 217 216 187 187 186 181 174 160 166 175 181 187 192 196 200 203 205 207 208 209 210 210 210 210 210 209 209 210 211 211 212 213 214 215 215 215 216 216 216 216 217 218 219 220 220 220 221 221 222 222 223 223 224 225 226 226 226 226 227 227
186 184 183 176 180 189 193 198 200 192 190 195 201 209 213 211 206 202 200 203 208 205 199 206 207 196 203 208 184 182 177 176 174 164 164 172 178 185 193 198 203 206 207 210 210 211 211 211 211 211 211 212 212 212 212 213 213 214 214 215 216 217 217 218 218 218 218 219 220 221 222 222 223 223 223 224 224 225 226 226 226 227 228 228 229 229
185 185 191 184 181 184 188 195 194 182 177 186 196 200 207 211 206 201 206 211 208 201 204 217 211 192 192 198 185 181 175 173 177 173 172 178 183 190 198 204 208 209 212 213 213 213 212 212 212 211 210 212 214 215 215 215 215 215 215 216 217 218 219 220 220 220 221 221 222 223 224 224 225 225 225 226 226 227 228 228 228 229 229 230 230 231
186 189 196 187 176 180 182 180 179 175 173 182 189 191 200 205 200 201 211 215 210 204 206 209 201 189 186 183 179 184 179 170 172 175 178 182 188 195 202 209 212 214 217 217 216 214 214 213 213 211 210 211 213 215 217 217 217 217 217 217 217 219 220 221 222 222 222 223 224 225 225 226 227 227 227 228 228 229 230 230 231 231 232 233 233 233
193 195 200 189 178 181 179 174 174 171 171 178 187 193 196 195 194 198 206 210 204 197 194 189 184 182 184 183 182 184 180 170 169 174 179 183 190 196 203 211 217 220 222 219 216 214 213 213 212 211 210 211 213 215 217 218 219 219 219 219 219 220 221 221 222 223 224 225 226 227 227 228 229 229 229 230 230 231 232 232 233 233 234 235 235 236
200 201 203 191 181 185 183 181 178 168 162 167 181 200 200 192 194 200 204 207 200 190 185 184 181 182 188 191 184 179 176 169 168 175 182 188 193 196 202 210 217 224 225 219 215 212 211 212 212 210 211 213 214 216 217 218 220 221 221 221 221 222 223 224 224 224 224 226 227 228 228 228 229 230 231 232 232 233 233 233 234 234 235 237 238 239
210 208 206 193 186 195 194 189 186 179 174 171 175 214 216 198 190 193 196 199 198 194 191 188 186 190 197 202 194 179 168 164 175 192 194 195 197 197 202 207 212 223 225 214 210 209 208 211 213 212 213 215 217 217 218 219 220 221 222 223 222 222 223 225 226 226 226 226 228 228 228 228 229 230 232 233 234 235 235 235 236 236 237 239 240 242
216 211 209 202 197 203 208 207 204 202 200 201 206 218 217 206 193 187 189 192 196 200 199 194 193 196 201 205 203 190 177 180 197 211 213 213 211 208 210 211 210 216 215 204 203 206 209 213 216 217 218 219 221 221 221 222 221 221 223 225 224 223 224 225 226 228 228 228 228 229 229 229 230 231 232 233 234 235 236 237 238 239 240 241 242 244
220 209 204 202 201 208 218 218 207 201 201 206 209 205 204 206 195 186 192 198 198 198 195 193 196 198 199 202 201 195 192 195 203 213 219 223 226 224 225 224 216 213 209 201 201 207 214 218 221 223 223 223 224 224 225 225 224 223 224 225 224 225 225 224 225 227 228 229 230 230 230 231 231 232 233 234 234 236 237 238 240 242 243 243 244 244
218 212 202 201 202 207 213 209 201 205 205 204 206 204 203 206 200 192 198 205 201 196 192 192 195 198 200 203 200 195 192 190 195 211 219 224 229 230 229 229 225 219 215 210 207 210 216 220 223 226 227 226 225 226 226 227 226 225 224 224 224 226 226 226 226 227 228 230 232 233 233 233 233 233 234 235 236 237 238 240 242 243 244 245 245 246
212 213 205 203 204 206 207 203 200 205 206 205 208 208 205 206 206 205 208 211 208 205 202 200 199 200 204 207 202 199 198 195 194 214 224 221 223 224 224 226 226 223 220 219 217 216 219 222 224 226 227 226 225 225 226 226 225 223 223 223 224 226 228 230 230 229 230 232 233 234 234 235 234 234 234 235 237 238 239 241 243 244 245 246 247 248
210 213 211 207 206 203 202 200 199 202 208 210 208 203 200 202 206 204 204 211 215 212 210 209 206 206 207 207 207 212 215 214 215 229 237 230 222 219 220 221 222 223 222 222 222 221 223 226 226 225 225 225 223 222 223 223 222 221 221 223 225 225 228 232 233 232 232 234 234 234 234 235 235 234 234 235 236 238 240 242 244 245 247 248 248 249
213 216 212 210 212 207 199 197 202 208 213 212 210 209 208 210 211 202 198 212 220 217 214 212 211 214 216 217 223 230 229 225 225 228 230 230 228 224 221 221 224 227 225 222 220 222 225 229 227 224 223 223 221 220 220 220 220 220 221 222 224 225 227 231 235 234 233 234 236 236 236 236 236 237 236 236 237 239 240 243 245 247 249 249 249 249
222 223 215 210 214 209 200 201 209 213 214 212 213 218 221 221 217 208 205 219 223 221 219 214 214 221 224 225 230 232 226 225 226 226 228 232 234 230 227 227 228 229 229 226 223 224 227 229 225 220 219 219 218 217 217 218 219 219 220 222 225 227 228 231 234 233 233 235 238 238 237 238 239 240 238 237 239 240 240 243 247 250 251 251 250 250
227 229 224 215 212 207 202 207 215 216 213 211 213 220 227 222 213 207 214 224 223 222 223 220 219 225 226 224 227 228 226 225 224 224 227 231 233 232 234 236 234 231 231 230 228 229 229 227 224 220 218 216 214 213 215 218 219 219 220 223 225 227 229 231 232 233 234 237 239 238 238 239 240 242 241 241 241 241 242 245 249 252 253 252 251 250
226 227 224 216 212 210 206 209 218 218 214 213 217 225 227 218 210 211 218 221 220 220 222 220 221 227 228 225 225 226 226 223 221 222 226 227 228 230 233 235 235 233 231 229 229 228 224 220 220 220 218 215 211 209 211 214 215 216 218 220 222 225 228 230 232 235 238 239 239 238 239 241 242 244 246 246 245 244 245 248 252 254 254 253 252 252
224 226 226 217 213 214 212 212 219 219 215 216 224 227 223 220 222 225 222 218 217 217 218 217 219 222 222 221 220 219 219 219 219 221 223 225 226 228 229 230 231 231 231 233 235 233 226 222 222 222 220 218 214 211 209 209 211 214 218 220 222 226 229 231 234 237 239 241 243 243 243 245 246 247 248 248 247 245 247 250 253 254 255 255 256 254
220 218 221 217 212 214 215 216 218 218 219 225 229 227 225 226 226 225 223 223 223 220 218 217 218 217 214 213 215 217 218 221 222 222 223 226 229 230 230 231 231 232 232 234 237 235 231 229 229 229 229 230 228 224 221 217 213 213 216 219 223 226 228 231 234 237 239 243 245 246 246 245 245 246 247 247 246 245 246 248 250 252 254 257 260 258
218 214 214 215 214 212 213 217 219 219 223 228 225 223 226 228 224 220 220 224 226 225 223 220 217 216 213 211 213 218 221 223 225 225 226 228 230 231 232 233 233 233 233 233 233 232 229 228 229 230 232 235 235 232 229 226 222 220 222 226 229 230 231 235 238 241 243 245 246 247 247 246 246 246 247 247 246 246 246 247 249 252 254 255 257 256
219 211 208 211 215 213 213 218 219 220 223 223 218 217 220 222 221 218 216 218 222 224 224 221 219 219 217 214 215 219 222 224 226 227 228 229 230 232 234 235 235 234 234 234 232 230 228 226 226 226 227 229 231 231 231 230 229 230 234 237 238 239 240 242 244 246 248 248 247 248 247 246 246 247 247 247 247 247 247 248 249 250 250 250 249 248
220 214 209 212 216 216 215 216 216 217 219 217 213 213 214 215 219 218 214 216 220 221 222 223 224 224 222 220 219 221 223 225 226 228 229 230 231 233 233 234 235 235 235 235 234 233 232 230 230 230 229 230 231 231 233 235 236 237 240 242 242 243 243 244 246 248 247 246 245 246 246 246 246 246 246 247 248 249 248 249 249 248 247 247 247 246
229 222 215 212 214 217 218 219 217 215 215 213 210 211 211 213 217 217 214 215 217 218 219 222 224 225 226 225 223 222 225 227 228 230 231 231 230 231 230 230 232 234 233 233 234 235 235 234 234 234 234 235 236 235 237 240 242 243 244 245 245 245 245 245 246 247 247 248 248 249 250 250 250 250 251 251 253 253 252 251 251 251 248 247 247 246
228 218 210 211 216 220 221 220 217 212 212 212 209 209 211 213 215 217 216 216 217 219 221 223 224 226 227 227 225 224 226 230 229 228 230 232 230 228 227 229 232 233 233 233 235 236 237 238 238 237 236 237 240 241 242 245 248 250 251 251 250 250 250 251 252 252 252 253 256 257 257 257 257 258 258 257 257 256 255 254 253 252 250 249 250 251
214 210 209 209 214 223 224 220 213 210 215 217 210 207 210 212 212 214 216 217 218 220 223 226 229 229 228 227 227 225 226 229 229 228 229 232 232 230 229 231 235 237 236 237 238 238 238 239 241 241 242 242 242 244 245 248 251 254 255 256 256 257 257 258 258 257 258 259 261 261 261 261 262 262 261 259 256 254 254 254 253 252 250 251 255 257
215 219 221 211 210 222 224 215 208 209 217 217 210 206 209 211 210 212 215 217 219 220 222 224 227 229 230 231 230 227 226 228 230 231 234 237 238 235 234 234 236 238 239 240 243 244 244 244 244 245 247 248 248 248 249 252 255 257 258 259 259 259 260 260 260 260 261 262 263 263 262 262 263 262 260 257 255 253 252 251 252 252 251 252 256 259
219 216 215 209 213 224 218 204 200 204 209 210 209 208 211 213 212 213 215 217 219 220 221 221 223 226 231 235 234 232 230 231 233 235 238 242 243 240 239 239 238 238 240 242 244 246 247 247 247 249 251 253 253 254 255 257 260 261 261 261 261 261 261 261 260 260 261 261 261 261 262 262 261 259 258 256 254 253 252 252 252 252 252 253 256 258